SCP
-0 -0 0 0 0 0 0 0 0 0 0 0 -0 -0 -0 0 0 0 -0 -0 -0 -0 -0 -0 -0 -0 -0 -0 -0 -0 -0 -0 -0 -0 -0 -0 -0 -0 -0 -0 -0 -0 -0 -0 -0 -0 -0 -0 -0
0 0 -0 0 0 -0 0 0 0 0 0 0 0 0 -0 0 0 0 -0 -0 -0 -0 -0 -0 -0 -0 -0 -0 -0 -0 -0 -0 -0 -0 -0 -0 -0 -0 -0 -0 -0 -0 -0 -0 -0 -0 -0 -0 -0
0 0 0 -0 -0 -0 -0 0 0 0 0 0 0 0 0 0 -0 -0 -0 -0 -0 -0 -0 -0 -0 -0 -0 -0 -0 -0 -0 -0 -0 -0 -0 -0 -0 -0 -0 -0 -0 -0 -0 -0 -0 -0 -0 -0 -0
0 0 0 -0 0 0 -0 -0 -0 0 0 0 0 0 0 -0 0 -0 0 -0 -0 -0 -0 -0 -0 -0 -0 -0 -0 -0 -0 -0 -0 -0 -0 -0 -0 -0 -0 -0 -0 -0 -0 -0 -0 -0 -0 -0 -0
0 0 0 0 0 0 0 -0 -0 -0 0 0 0 0 0 0 0 0 -0 -0 -0 -0 -0 -0 -0 -0 -0 -0 -0 -0 -0 -0 -0 -0 -0 -0 -0 -0 -0 -0 -0 -0 -0 -0 -0 -0 -0 -0 -0
0 0 0 0 0 0 0 -0 -0 0 0 0 0 0 0 0 0 0 0 0 0 0 -0 0 -0 -0 -0 -0 -0 -0 -0 -0 -0 -0 -0 -0 -0 -0 -0 -0 -0 -0 -0 -0 -0 0 0 0 0
0 0 0 0 0 0 0 0 0 0 0 0 -0 0 0 0 0 0 0 0 0 0 0 0 0 -0 -0 -0 0 0 -0 -0 -0 -0 -0 -0 -0 -0 -0 -0 -0 -0 -0 -0 -0 -0 -0 0 0
0 0 0 0 0 0 0 0 0 0 0 0 0 0 0 0 0 0 0 0 0 0 0 0 0 0 0 0 0 0 0 -0 -0 -0 -0 -0 -0 -0 0 0 0 0 -0 0 0 0 0 0 0
0 0 0 0 0 0 0 0 0 0 0 0 0 0 0 0 0 0 0 0 0 0 0 0 0 0 0 0 0 0 0 0 0 0 0 0 0 0 0 0 0 0 0 0 0 0 0 0 0
0 0 0 0 0 0 0 0 0 0 0 0 0 0 0 0 0 0 0 0 0 0 0 0 0 0 0 0 0 0 0 0 0 0 0 0 0 0 0 0 0 0 0 0 0 0 0 0 0
0 0 0 0 0 0 0 0 0 0 0 0 0 0 0 0 0 0 0 0 0 0 0 0 0 0 0 0 0 0 0 0 0 0 0 0 0 0 0 0 0 0 0 0 0 0 0 0 0
0 0 0 0 0 0 0 0 0 0 0 0 0 0 0 0 0 0 0 0 0 0 0 0 0 0 0 0 0 0 0 0 0 0 0 0 0 0 0 0 0 0 0 0 0 0 0 0 0
0 0 0 0 0 0 0 0 0 0 0 0 0 0 0 0 0 0 0 0 0 0 0 0 0 0 0 0 0 0 0 0 0 0 0 0 0 0 0 0 0 0 0 0 0 0 0 0 0
0 0 0 0 0 0 0 0 0 0 0 0 0 0 0 0 0 0 0 0 0 0 0 0 0 0 0 0 0 0 0 0 0 0 0 0 0 0 0 0 0 0 0 0 0 0 0 0 0
0 0 0 0 0 0 0 0 0 0 0 0 0 0 0 0 0 0 0 0 0 0 0 0 0 0 0 0 0 0 0 0 0 0 0 0 0 0 0 0 0 0 0 0 0 0 0 0 0
0 0 0 0 0 0 0 0 0 0 0 0 0 0 0 0 0 0 0 0 0 0 0 0 0 0 0 0 0 0 0 0 0 0 0 0 0 0 0 0 0 0 0 0 0 0 0 0 0
0 0 0 0 0 0 0 0 0 0 0 0 0 0 0 0 0 0 0 0 0 0 0 0 0 0 0 0 0 0 0 0 0 0 0 0 0 0 0 0 0 0 0 0 0 0 0 0 0
0 0 0 0 0 0 0 0 0 0 0 0 0 0 0 0 0 0 0 0 0 0 0 0 0 0 0 0 0 0 0 0 0 0 0 0 0 0 0 0 0 0 0 0 0 0 0 0 0
0 0 0 0 0 0 0 0 0 0 0 0 0 0 0 0 0 0 0 0 0 0 0 0 0 0 0 0 0 0 0 0 0 0 0 0 0 0 0 0 0 0 0 0 0 0 0 0 0
0 0 0 0 0 0 0 0 0 0 0 0 0 0 0 0 0 0 0 0 0 0 0 0 0 0 0 0 0 0 0 0 0 0 0 0 0 0 0 0 0 0 0 0 0 0 0 0 0
0 0 0 0 0 0 0 -0 0 0 0 0 0 0 0 0 0 0 0 0 0 0 0 0 0 0 0 0 0 0 0 0 0 0 0 0 0 0 0 0 0 0 0 0 0 0 0 -0 0
0 0 0 0 0 0 0 -0 0 0 0 0 0 0 0 0 0 0 0 0 0 0 0 0 0 0 0 0 0 0 0 0 0 0 0 0 0 0 0 0 0 0 0 0 0 0 0 0 0
0 0 0 0 0 0 0 0 0 0 0 0 0 0 0 0 0 0 0 0 0 0 0 0 0 0 0 0 0 0 0 0 0 0 0 0 0 0 0 0 0 0 0 0 0 0 0 0 0
0 0 0 0 0 0 0 0 -0 0 0 0 0 0 0 0 0 0 0 0 0 0 0 0 0 0 0 0 0 0 0 0 0 0 0 0 0 0 0 0 0 0 0 0 0 0 0 0 0
0 0 0 0 0 0 0 0 0 0 0 0 0 0 0 0 0 0 0 0 0 0 0 0 0 0 0 0 0 0 0 0 0 0 0 0 0 0 0 0 0 0 0 0 0 0 0 0 0
0 0 0 0 0 0 0 0 0 0 0 0 0 0 0 0 0 0 0 0 0 0 0 0 0 0 0 0 0 0 0 0 0 0 0 0 0 0 0 0 0 0 0 0 0 0 0 0 0
0 0 0 0 0 0 0 0 0 0 0 0 0 0 0 0 0 0 0 0 0 0 0 0 0 0 0 0 0 0 0 0 0 0 0 0 0 0 0 0 0 0 0 0 0 0 0 0 0
0 0 0 0 0 0 0 0 0 0 0 0 0 0 0 0 0 0 0 0 0 0 0 0 0 0 0 0 0 0 0 0 0 0 0 0 0 0 0 0 0 0 0 0 0 0 0 0 0
0 0 0 0 0 0 0 0 0 0 0 0 0 0 0 0 0 0 0 0 0 0 0 0 0 0 0 0 0 0 0 0 0 0 0 0 0 0 0 0 0 0 0 0 0 0 0 0 0
0 0 0 0 0 0 0 0 0 0 0 0 0 0 0 0 0 0 0 0 0 0 0 0 0 0 0 0 0 0 0 0 0 0 0 0 0 0 0 0 0 0 0 0 0 0 0 0 0
Wind_Speed_500mb
6 9 8 5 8 10 1 2 2 2 6 6 23 30 20 12 4 6 30 14 14 25 35 31 30 27 25 22 19 19 18 17 15 14 17 21 26 27 24 20 20 20 20 19 18 19 20 22 22
8 9 7 7 9 7 7 5 9 6 18 43 30 24 20 7 10 21 14 12 18 30 35 32 30 27 24 21 19 18 16 15 14 11 14 19 23 25 26 22 20 20 19 18 18 19 20 21 23
8 6 4 9 7 8 10 7 12 10 22 12 10 22 9 5 16 15 13 20 23 26 33 32 29 27 24 21 19 18 15 16 15 11 12 17 21 25 27 24 22 22 21 21 20 21 21 20 22
4 4 9 8 6 2 14 12 13 13 9 10 30 16 12 3 8 15 24 23 25 28 35 35 30 25 23 25 22 20 15 14 14 13 8 13 18 23 26 26 23 22 22 21 21 22 22 21 17
6 6 8 6 2 2 5 21 19 8 10 13 12 9 9 17 21 25 31 27 26 33 28 24 29 20 18 23 21 18 15 15 15 14 7 9 13 19 23 25 25 23 22 22 22 21 20 17 13
5 6 9 2 5 4 5 22 19 10 13 16 17 15 10 25 25 28 29 28 27 30 32 25 25 26 22 21 22 19 16 16 17 19 11 6 9 15 20 23 25 25 25 25 24 23 19 16 12
11 8 9 6 7 4 7 13 15 14 16 8 25 10 20 29 28 25 26 36 33 27 28 27 26 31 28 23 23 20 19 18 19 22 14 9 7 11 15 18 21 22 22 23 23 21 20 18 13
6 10 4 2 11 8 7 5 15 21 7 18 18 15 14 41 36 33 31 37 39 38 35 31 33 35 28 27 24 23 22 20 21 20 17 12 10 13 12 17 20 25 21 23 22 23 24 19 15
5 9 2 2 8 7 14 6 7 12 18 9 9 20 21 46 42 40 42 38 37 39 37 30 33 35 31 29 25 23 22 22 22 22 21 15 11 6 5 11 15 21 25 26 25 23 27 28 16
8 7 11 3 4 6 12 10 17 12 14 8 18 27 44 47 44 42 42 43 40 40 39 36 35 34 29 28 27 27 27 28 24 25 25 19 14 7 5 6 12 19 18 21 24 23 26 28 25
6 9 7 3 4 5 8 5 13 19 7 21 33 42 44 48 48 45 44 41 42 43 42 40 42 40 37 35 31 29 31 30 26 26 29 23 19 17 13 14 16 10 12 14 15 17 21 26 23
4 2 7 5 6 4 7 5 8 19 12 20 29 39 45 48 49 49 47 43 43 45 47 48 46 46 42 40 39 37 37 35 32 29 29 28 23 27 22 21 18 8 10 10 12 19 23 24 25
5 2 4 5 10 9 11 13 14 18 21 21 29 41 42 44 46 47 46 45 43 43 45 50 52 47 48 46 45 41 38 37 35 33 36 30 38 29 26 25 11 7 8 8 7 14 20 23 22
5 3 10 12 20 12 10 9 10 17 30 33 37 40 41 42 44 47 48 48 48 46 44 46 52 53 47 55 49 45 41 43 38 39 42 35 34 34 32 20 10 6 6 6 5 10 15 15 11
2 8 12 19 18 11 12 13 19 31 36 44 44 42 42 42 43 43 40 42 41 40 39 40 46 50 47 46 49 46 44 42 37 42 45 43 40 34 37 14 16 11 12 13 6 11 7 11 13
5 6 4 8 17 7 17 20 12 25 46 51 49 48 46 47 44 44 42 42 40 38 36 38 40 44 46 46 48 47 45 35 37 50 42 58 45 35 21 16 18 16 15 9 4 5 12 14 14
8 7 10 16 18 9 9 17 9 16 52 54 54 53 52 48 49 47 46 44 41 38 35 35 37 43 46 50 51 50 46 51 36 38 33 34 31 27 27 22 26 19 15 7 12 15 13 13 17
11 9 9 13 6 6 8 25 13 18 45 59 58 58 57 57 58 51 49 45 42 39 37 36 40 44 46 52 53 56 50 48 49 48 49 42 32 29 32 32 22 16 14 17 17 15 15 16 17
7 9 10 9 9 8 16 28 32 41 44 46 58 63 69 68 59 53 50 46 42 40 38 37 39 45 50 53 55 62 66 59 52 47 38 36 39 40 30 27 23 22 23 21 17 16 19 23 17
8 10 20 15 10 16 19 28 21 26 36 63 76 79 80 76 72 64 57 49 44 41 39 40 43 48 53 55 68 48 60 55 52 46 47 45 37 32 29 31 32 29 21 18 15 14 16 22 22
13 19 10 16 12 7 13 26 22 20 50 72 86 93 81 92 87 75 64 54 48 46 43 44 45 53 64 70 75 74 63 62 57 46 41 41 39 39 38 35 30 25 19 16 16 19 22 27 28
16 14 13 11 4 11 5 33 13 15 25 27 68 76 71 77 85 78 67 59 53 48 44 45 53 57 62 67 66 58 68 67 62 55 48 49 46 44 38 32 26 21 17 15 17 20 23 23 28
12 9 10 4 5 8 7 9 3 5 15 26 50 56 65 79 88 86 75 59 51 50 49 52 56 68 71 69 75 79 75 71 68 63 62 57 51 43 36 29 23 19 17 18 20 22 24 27 27
13 10 12 8 4 15 18 16 64 11 31 17 17 34 57 70 79 81 68 58 55 53 52 56 60 66 75 75 80 77 74 73 70 69 67 62 53 44 35 27 21 19 19 20 22 25 27 31 33
9 13 4 6 0 17 7 18 41 17 21 15 20 32 47 63 74 80 74 67 61 60 59 62 66 69 72 74 72 70 70 72 72 72 68 62 52 43 34 25 20 18 19 20 24 25 28 31 32
15 17 11 13 8 9 6 16 13 11 21 27 25 27 44 60 73 80 73 68 64 63 66 69 69 73 72 68 66 65 70 69 70 67 61 53 46 39 32 25 21 18 20 21 22 22 25 30 31
9 13 13 5 5 3 11 16 23 21 13 7 9 33 50 63 74 74 69 63 64 67 72 73 73 73 72 69 68 72 75 73 70 63 56 50 43 37 31 24 19 19 19 19 20 21 23 26 28
15 12 7 4 6 12 11 14 23 14 19 13 13 35 51 63 68 70 67 64 64 68 70 71 72 74 71 69 74 78 78 73 67 62 56 48 41 34 29 24 20 18 18 18 19 18 21 22 26
7 7 6 8 8 9 6 14 14 12 12 18 20 44 54 65 70 70 67 65 68 73 73 72 74 75 74 76 81 83 79 72 66 59 53 46 40 34 29 23 19 18 18 17 14 13 15 20 27
5 15 12 9 11 9 2 28 4 7 14 17 26 44 48 56 62 64 65 65 71 79 79 79 80 79 78 82 87 86 80 74 66 59 51 44 38 33 27 23 20 20 18 15 9 8 12 19 27
Wind_Direction_500mb
210 215 183 137 60 66 309 96 127 100 57 58 88 97 107 71 58 171 151 175 177 166 165 166 164 159 154 150 144 136 131 130 125 103 77 60 47 41 48 66 69 64 62 65 69 78 89 98 103
150 147 140 97 86 79 281 293 132 181 117 112 93 93 51 56 78 129 156 166 161 167 168 167 164 163 161 156 153 147 144 138 139 116 97 65 51 44 47 62 70 68 64 63 65 73 86 108 115
132 124 98 92 113 160 172 212 174 149 141 167 100 80 82 69 131 147 171 152 146 165 174 170 165 165 168 168 164 158 151 150 144 127 101 65 57 54 54 59 59 58 56 57 62 68 75 97 118
145 93 66 85 143 244 162 190 186 135 118 90 122 72 86 77 171 151 170 156 155 169 177 179 168 170 173 176 170 166 162 163 158 153 105 59 55 61 64 62 60 56 55 56 60 68 77 96 113
69 71 57 75 336 97 139 170 167 135 134 111 143 133 92 100 130 140 164 157 169 165 177 193 165 181 179 178 176 173 171 171 170 170 136 75 67 64 64 67 66 62 61 59 60 64 74 87 101
89 70 62 131 228 223 211 168 153 153 134 123 109 108 134 137 142 147 156 165 176 171 172 174 181 187 197 183 183 185 184 179 178 174 163 120 77 70 68 65 64 63 62 60 60 60 63 67 73
107 83 176 160 188 178 207 153 123 153 143 110 137 104 152 159 158 156 166 175 175 173 178 186 193 196 207 199 195 195 191 183 179 179 177 168 120 84 69 64 60 57 57 59 60 58 56 54 47
98 94 101 186 188 209 221 127 123 166 158 129 160 167 178 174 167 172 173 171 178 178 183 196 210 211 211 202 198 196 193 190 185 188 193 161 123 94 61 63 55 50 55 54 54 54 48 46 45
93 64 136 237 174 210 179 142 129 133 142 130 148 159 163 169 174 180 179 184 193 195 193 188 193 205 212 206 200 197 195 193 193 196 187 183 167 142 69 49 63 47 50 44 47 51 42 34 34
87 103 208 206 188 204 185 187 159 156 148 112 134 148 158 171 177 186 188 191 194 196 195 182 187 195 205 205 199 198 202 197 205 203 203 197 197 209 175 70 95 65 53 32 27 33 26 21 24
136 164 207 199 135 134 174 171 183 149 223 196 182 168 171 178 183 195 199 203 199 200 200 190 188 194 195 202 199 195 208 202 203 210 213 204 202 203 176 157 121 62 32 9 7 7 4 359 2
126 209 221 191 170 179 183 201 219 207 222 220 210 188 182 186 194 201 208 211 205 203 206 204 206 208 202 201 202 207 208 200 204 206 213 204 205 197 186 177 152 117 351 355 351 339 338 337 341
165 283 236 257 248 237 205 222 224 229 213 199 182 190 190 193 197 201 210 217 219 213 210 212 215 215 203 204 202 209 213 210 214 210 211 216 220 201 194 183 170 157 164 263 337 353 321 324 330
184 248 278 275 257 242 198 236 210 229 198 194 195 197 201 204 207 212 217 223 225 226 221 213 213 216 210 205 210 211 214 214 216 210 210 208 208 204 197 186 166 208 213 218 285 302 315 338 42
265 319 325 241 239 219 197 285 233 233 205 199 202 208 211 217 219 224 222 221 218 216 212 210 210 213 208 198 206 212 211 217 210 220 213 206 197 215 201 194 194 191 211 245 289 320 12 62 67
1 53 345 284 154 220 156 264 257 222 204 206 209 211 217 224 227 226 223 217 213 212 212 211 209 205 200 197 200 204 204 210 201 180 208 188 185 180 219 214 215 188 202 211 280 104 101 82 77
0 247 218 310 196 141 168 260 254 221 204 212 214 218 221 222 223 221 217 215 215 215 215 213 205 198 201 198 204 208 205 188 192 195 198 191 211 219 225 216 188 180 197 186 143 129 110 97 97
200 219 247 242 215 126 225 260 270 211 207 220 222 225 225 225 227 219 216 216 214 213 212 212 207 204 198 199 204 204 209 215 209 215 210 199 206 212 188 181 179 183 177 156 138 114 104 100 103
160 190 229 242 230 197 229 238 248 229 223 233 232 230 228 227 223 219 219 219 215 212 211 209 206 198 197 196 201 206 182 169 173 186 192 182 175 170 174 169 160 162 157 139 122 99 97 90 96
237 253 260 299 251 189 261 250 242 216 224 229 234 235 232 224 217 215 215 218 217 217 211 204 199 194 189 188 176 189 189 180 177 176 173 168 168 171 171 160 156 148 141 122 100 78 60 68 68
226 225 239 228 309 250 295 268 235 244 227 239 244 247 240 231 217 212 210 213 213 214 212 203 195 198 200 207 206 183 179 170 164 167 170 165 164 165 159 154 149 141 127 110 79 55 39 40 42
234 200 201 240 306 260 100 293 229 229 232 226 238 239 231 224 223 216 211 212 214 212 206 200 196 194 187 187 193 202 181 175 171 173 175 165 161 158 154 150 142 133 114 94 73 60 51 47 44
232 173 198 221 243 337 172 297 23 144 239 241 244 241 229 227 222 212 210 210 210 210 203 196 196 198 199 202 194 184 181 177 167 168 168 163 157 154 149 145 136 120 101 78 65 57 49 43 39
147 82 48 57 72 265 183 181 283 212 234 251 273 239 226 217 214 211 205 204 205 202 199 194 197 199 199 193 191 187 183 176 171 167 166 162 158 154 148 139 127 111 92 79 67 58 52 47 40
120 105 299 325 36 250 303 209 249 303 287 230 263 238 217 210 209 200 197 197 199 198 195 196 198 199 197 195 189 186 184 176 173 169 168 164 160 154 146 140 127 110 92 79 70 62 56 50 38
188 159 166 218 212 280 337 242 253 244 268 292 285 246 211 204 203 197 198 200 201 199 194 195 197 195 195 192 190 188 184 178 173 170 168 164 160 156 149 143 131 112 95 85 76 64 53 46 32
194 201 197 66 94 320 227 289 283 257 276 278 221 181 192 196 195 197 198 203 201 197 194 197 196 198 195 191 190 185 183 178 173 169 168 166 164 160 152 145 130 114 104 96 84 69 53 39 23
166 162 90 93 213 236 270 264 237 278 260 213 190 192 196 197 197 200 202 203 203 199 198 199 200 199 196 190 188 186 181 178 176 174 172 170 168 164 157 149 137 125 117 104 88 66 46 29 20
149 180 202 139 171 200 286 257 211 235 279 232 210 208 205 202 202 204 205 205 204 201 201 202 200 198 195 191 188 186 182 181 180 178 176 175 172 166 160 155 146 136 126 115 97 65 40 26 16
340 184 140 184 209 232 151 267 126 230 283 249 219 213 210 212 208 208 208 207 205 204 203 204 203 201 199 194 190 187 185 183 182 180 179 177 174 167 166 161 153 147 141 131 116 64 42 22 9
Wind_Speed_850mb
6 9 8 5 8 10 1 2 2 2 6 6 23 30 20 12 4 6 30 14 14 25 35 31 30 27 25 22 19 19 18 17 15 14 17 21 26 27 24 20 20 20 20 19 18 19 20 22 22
8 9 7 7 9 7 7 5 9 6 18 43 30 24 20 7 10 21 14 12 18 30 35 32 30 27 24 21 19 18 16 15 14 11 14 19 23 25 26 22 20 20 19 18 18 19 20 21 23
8 6 4 9 7 8 10 7 12 10 22 12 10 22 9 5 16 15 13 20 23 26 33 32 29 27 24 21 19 18 15 16 15 11 12 17 21 25 27 24 22 22 21 21 20 21 21 20 22
4 4 9 8 6 2 14 12 13 13 9 10 30 16 12 3 8 15 24 23 25 28 35 35 30 25 23 25 22 20 15 14 14 13 8 13 18 23 26 26 23 22 22 21 21 22 22 21 17
6 6 8 6 2 2 5 21 19 8 10 13 12 9 9 17 21 25 31 27 26 33 28 24 29 20 18 23 21 18 15 15 15 14 7 9 13 19 23 25 25 23 22 22 22 21 20 17 13
5 6 9 2 5 4 5 22 19 10 13 16 17 15 10 25 25 28 29 28 27 30 32 25 25 26 22 21 22 19 16 16 17 19 11 6 9 15 20 23 25 25 25 25 24 23 19 16 12
11 8 9 6 7 4 7 13 15 14 16 8 25 10 20 29 28 25 26 36 33 27 28 27 26 31 28 23 23 20 19 18 19 22 14 9 7 11 15 18 21 22 22 23 23 21 20 18 13
6 10 4 2 11 8 7 5 15 21 7 18 18 15 14 41 36 33 31 37 39 38 35 31 33 35 28 27 24 23 22 20 21 20 17 12 10 13 12 17 20 25 21 23 22 23 24 19 15
5 9 2 2 8 7 14 6 7 12 18 9 9 20 21 46 42 40 42 38 37 39 37 30 33 35 31 29 25 23 22 22 22 22 21 15 11 6 5 11 15 21 25 26 25 23 27 28 16
8 7 11 3 4 6 12 10 17 12 14 8 18 27 44 47 44 42 42 43 40 40 39 36 35 34 29 28 27 27 27 28 24 25 25 19 14 7 5 6 12 19 18 21 24 23 26 28 25
6 9 7 3 4 5 8 5 13 19 7 21 33 42 44 48 48 45 44 41 42 43 42 40 42 40 37 35 31 29 31 30 26 26 29 23 19 17 13 14 16 10 12 14 15 17 21 26 23
4 2 7 5 6 4 7 5 8 19 12 20 29 39 45 48 49 49 47 43 43 45 47 48 46 46 42 40 39 37 37 35 32 29 29 28 23 27 22 21 18 8 10 10 12 19 23 24 25
5 2 4 5 10 9 11 13 14 18 21 21 29 41 42 44 46 47 46 45 43 43 45 50 52 47 48 46 45 41 38 37 35 33 36 30 38 29 26 25 11 7 8 8 7 14 20 23 22
5 3 10 12 20 12 10 9 10 17 30 33 37 40 41 42 44 47 48 48 48 46 44 46 52 53 47 55 49 45 41 43 38 39 42 35 34 34 32 20 10 6 6 6 5 10 15 15 11
2 8 12 19 18 11 12 13 19 31 36 44 44 42 42 42 43 43 40 42 41 40 39 40 46 50 47 46 49 46 44 42 37 42 45 43 40 34 37 14 16 11 12 13 6 11 7 11 13
5 6 4 8 17 7 17 20 12 25 46 51 49 48 46 47 44 44 42 42 40 38 36 38 40 44 46 46 48 47 45 35 37 50 42 58 45 35 21 16 18 16 15 9 4 5 12 14 14
8 7 10 16 18 9 9 17 9 16 52 54 54 53 52 48 49 47 46 44 41 38 35 35 37 43 46 50 51 50 46 51 36 38 33 34 31 27 27 22 26 19 15 7 12 15 13 13 17
11 9 9 13 6 6 8 25 13 18 45 59 58 58 57 57 58 51 49 45 42 39 37 36 40 44 46 52 53 56 50 48 49 48 49 42 32 29 32 32 22 16 14 17 17 15 15 16 17
7 9 10 9 9 8 16 28 32 41 44 46 58 63 69 68 59 53 50 46 42 40 38 37 39 45 50 53 55 62 66 59 52 47 38 36 39 40 30 27 23 22 23 21 17 16 19 23 17
8 10 20 15 10 16 19 28 21 26 36 63 76 79 80 76 72 64 57 49 44 41 39 40 43 48 53 55 68 48 60 55 52 46 47 45 37 32 29 31 32 29 21 18 15 14 16 22 22
13 19 10 16 12 7 13 26 22 20 50 72 86 93 81 92 87 75 64 54 48 46 43 44 45 53 64 70 75 74 63 62 57 46 41 41 39 39 38 35 30 25 19 16 16 19 22 27 28
16 14 13 11 4 11 5 33 13 15 25 27 68 76 71 77 85 78 67 59 53 48 44 45 53 57 62 67 66 58 68 67 62 55 48 49 46 44 38 32 26 21 17 15 17 20 23 23 28
12 9 10 4 5 8 7 9 3 5 15 26 50 56 65 79 88 86 75 59 51 50 49 52 56 68 71 69 75 79 75 71 68 63 62 57 51 43 36 29 23 19 17 18 20 22 24 27 27
13 10 12 8 4 15 18 16 64 11 31 17 17 34 57 70 79 81 68 58 55 53 52 56 60 66 75 75 80 77 74 73 70 69 67 62 53 44 35 27 21 19 19 20 22 25 27 31 33
9 13 4 6 0 17 7 18 41 17 21 15 20 32 47 63 74 80 74 67 61 60 59 62 66 69 72 74 72 70 70 72 72 72 68 62 52 43 34 25 20 18 19 20 24 25 28 31 32
15 17 11 13 8 9 6 16 13 11 21 27 25 27 44 60 73 80 73 68 64 63 66 69 69 73 72 68 66 65 70 69 70 67 61 53 46 39 32 25 21 18 20 21 22 22 25 30 31
9 13 13 5 5 3 11 16 23 21 13 7 9 33 50 63 74 74 69 63 64 67 72 73 73 73 72 69 68 72 75 73 70 63 56 50 43 37 31 24 19 19 19 19 20 21 23 26 28
15 12 7 4 6 12 11 14 23 14 19 13 13 35 51 63 68 70 67 64 64 68 70 71 72 74 71 69 74 78 78 73 67 62 56 48 41 34 29 24 20 18 18 18 19 18 21 22 26
7 7 6 8 8 9 6 14 14 12 12 18 20 44 54 65 70 70 67 65 68 73 73 72 74 75 74 76 81 83 79 72 66 59 53 46 40 34 29 23 19 18 18 17 14 13 15 20 27
5 15 12 9 11 9 2 28 4 7 14 17 26 44 48 56 62 64 65 65 71 79 79 79 80 79 78 82 87 86 80 74 66 59 51 44 38 33 27 23 20 20 18 15 9 8 12 19 27
Wind_Direction_850mb
210 215 183 137 60 66 309 96 127 100 57 58 88 97 107 71 58 171 151 175 177 166 165 166 164 159 154 150 144 136 131 130 125 103 77 60 47 41 48 66 69 64 62 65 69 78 89 98 103
150 147 140 97 86 79 281 293 132 181 117 112 93 93 51 56 78 129 156 166 161 167 168 167 164 163 161 156 153 147 144 138 139 116 97 65 51 44 47 62 70 68 64 63 65 73 86 108 115
132 124 98 92 113 160 172 212 174 149 141 167 100 80 82 69 131 147 171 152 146 165 174 170 165 165 168 168 164 158 151 150 144 127 101 65 57 54 54 59 59 58 56 57 62 68 75 97 118
145 93 66 85 143 244 162 190 186 135 118 90 122 72 86 77 171 151 170 156 155 169 177 179 168 170 173 176 170 166 162 163 158 153 105 59 55 61 64 62 60 56 55 56 60 68 77 96 113
69 71 57 75 336 97 139 170 167 135 134 111 143 133 92 100 130 140 164 157 169 165 177 193 165 181 179 178 176 173 171 171 170 170 136 75 67 64 64 67 66 62 61 59 60 64 74 87 101
89 70 62 131 228 223 211 168 153 153 134 123 109 108 134 137 142 147 156 165 176 171 172 174 181 187 197 183 183 185 184 179 178 174 163 120 77 70 68 65 64 63 62 60 60 60 63 67 73
107 83 176 160 188 178 207 153 123 153 143 110 137 104 152 159 158 156 166 175 175 173 178 186 193 196 207 199 195 195 191 183 179 179 177 168 120 84 69 64 60 57 57 59 60 58 56 54 47
98 94 101 186 188 209 221 127 123 166 158 129 160 167 178 174 167 172 173 171 178 178 183 196 210 211 211 202 198 196 193 190 185 188 193 161 123 94 61 63 55 50 55 54 54 54 48 46 45
93 64 136 237 174 210 179 142 129 133 142 130 148 159 163 169 174 180 179 184 193 195 193 188 193 205 212 206 200 197 195 193 193 196 187 183 167 142 69 49 63 47 50 44 47 51 42 34 34
87 103 208 206 188 204 185 187 159 156 148 112 134 148 158 171 177 186 188 191 194 196 195 182 187 195 205 205 199 198 202 197 205 203 203 197 197 209 175 70 95 65 53 32 27 33 26 21 24
136 164 207 199 135 134 174 171 183 149 223 196 182 168 171 178 183 195 199 203 199 200 200 190 188 194 195 202 199 195 208 202 203 210 213 204 202 203 176 157 121 62 32 9 7 7 4 359 2
126 209 221 191 170 179 183 201 219 207 222 220 210 188 182 186 194 201 208 211 205 203 206 204 206 208 202 201 202 207 208 200 204 206 213 204 205 197 186 177 152 117 351 355 351 339 338 337 341
165 283 236 257 248 237 205 222 224 229 213 199 182 190 190 193 197 201 210 217 219 213 210 212 215 215 203 204 202 209 213 210 214 210 211 216 220 201 194 183 170 157 164 263 337 353 321 324 330
184 248 278 275 257 242 198 236 210 229 198 194 195 197 201 204 207 212 217 223 225 226 221 213 213 216 210 205 210 211 214 214 216 210 210 208 208 204 197 186 166 208 213 218 285 302 315 338 42
265 319 325 241 239 219 197 285 233 233 205 199 202 208 211 217 219 224 222 221 218 216 212 210 210 213 208 198 206 212 211 217 210 220 213 206 197 215 201 194 194 191 211 245 289 320 12 62 67
1 53 345 284 154 220 156 264 257 222 204 206 209 211 217 224 227 226 223 217 213 212 212 211 209 205 200 197 200 204 204 210 201 180 208 188 185 180 219 214 215 188 202 211 280 104 101 82 77
0 247 218 310 196 141 168 260 254 221 204 212 214 218 221 222 223 221 217 215 215 215 215 213 205 198 201 198 204 208 205 188 192 195 198 191 211 219 225 216 188 180 197 186 143 129 110 97 97
200 219 247 242 215 126 225 260 270 211 207 220 222 225 225 225 227 219 216 216 214 213 212 212 207 204 198 199 204 204 209 215 209 215 210 199 206 212 188 181 179 183 177 156 138 114 104 100 103
160 190 229 242 230 197 229 238 248 229 223 233 232 230 228 227 223 219 219 219 215 212 211 209 206 198 197 196 201 206 182 169 173 186 192 182 175 170 174 169 160 162 157 139 122 99 97 90 96
237 253 260 299 251 189 261 250 242 216 224 229 234 235 232 224 217 215 215 218 217 217 211 204 199 194 189 188 176 189 189 180 177 176 173 168 168 171 171 160 156 148 141 122 100 78 60 68 68
226 225 239 228 309 250 295 268 235 244 227 239 244 247 240 231 217 212 210 213 213 214 212 203 195 198 200 207 206 183 179 170 164 167 170 165 164 165 159 154 149 141 127 110 79 55 39 40 42
234 200 201 240 306 260 100 293 229 229 232 226 238 239 231 224 223 216 211 212 214 212 206 200 196 194 187 187 193 202 181 175 171 173 175 165 161 158 154 150 142 133 114 94 73 60 51 47 44
232 173 198 221 243 337 172 297 23 144 239 241 244 241 229 227 222 212 210 210 210 210 203 196 196 198 199 202 194 184 181 177 167 168 168 163 157 154 149 145 136 120 101 78 65 57 49 43 39
147 82 48 57 72 265 183 181 283 212 234 251 273 239 226 217 214 211 205 204 205 202 199 194 197 199 199 193 191 187 183 176 171 167 166 162 158 154 148 139 127 111 92 79 67 58 52 47 40
120 105 299 325 36 250 303 209 249 303 287 230 263 238 217 210 209 200 197 197 199 198 195 196 198 199 197 195 189 186 184 176 173 169 168 164 160 154 146 140 127 110 92 79 70 62 56 50 38
188 159 166 218 212 280 337 242 253 244 268 292 285 246 211 204 203 197 198 200 201 199 194 195 197 195 195 192 190 188 184 178 173 170 168 164 160 156 149 143 131 112 95 85 76 64 53 46 32
194 201 197 66 94 320 227 289 283 257 276 278 221 181 192 196 195 197 198 203 201 197 194 197 196 198 195 191 190 185 183 178 173 169 168 166 164 160 152 145 130 114 104 96 84 69 53 39 23
166 162 90 93 213 236 270 264 237 278 260 213 190 192 196 197 197 200 202 203 203 199 198 199 200 199 196 190 188 186 181 178 176 174 172 170 168 164 157 149 137 125 117 104 88 66 46 29 20
149 180 202 139 171 200 286 257 211 235 279 232 210 208 205 202 202 204 205 205 204 201 201 202 200 198 195 191 188 186 182 181 180 178 176 175 172 166 160 155 146 136 126 115 97 65 40 26 16
340 184 140 184 209 232 151 267 126 230 283 249 219 213 210 212 208 208 208 207 205 204 203 204 203 201 199 194 190 187 185 183 182 180 179 177 174 167 166 161 153 147 141 131 116 64 42 22 9